COSMOS 1275 DEB, 12674

Orbit data source: Space-Track

COSMOS 1275 DEB, 12674 is space debris in LEO originally from a launch on Thu, 04 Jun 1981 UTC launched from the Plesetsk Missile And Space Complex (PKMTR). Debris objects in space refer to the collection of defunct objects orbiting the Earth. Examples of debris include non-operational satellites, rocket bodies, and fragments generated from explosions, collisions, or faulty payload assembly.

Loading next visibility...
Identifier
12674, 1981-053AE
Orbit
LEO
Country
Flag of CISCIS
Related business
Manufacturer
Unknown
Mission
Spacecraft
Bus & Motor
Unknown
Mass
Unknown
Launch date (UTC)
1981-06-04 (45 years ago)
Launch vehicle
Unknown
Launch site
Plesetsk Missile And Space Complex (PKMTR)
Object type
Payload
Rocket body
Debris
Shape & HBR
Unknown shape, 0.2 m
Radar Cross Section
Medium (>0.1 m² and <1 m²)

Expand to show TLE details & history
Last TLE update: 10 hours ago

TLE from 10 hours ago
0 COSMOS 1275 DEB
1 12674U 81053AE  26131.21410007  .00000464  00000-0  45121-3 0  9995
2 12674  82.9380  33.7501 0101540  85.4730  68.0955 13.75095271234742
Epoch: 2026-05-11T05:08Z
TLE epoch observation values (Epoch: 2026-05-11T05:08:18.246Z)
Latitude
25.17003°
Longitude
-95.65195°
Altitude
957.151 km
Speed
7.389 km/s
True Right ascension
14h 01m 43s
True Declination
25° 02' 29"
Sunlit
Object was in full shadow at epoch
Visualization orbit readout
Latitude
Unknown
Longitude
Unknown
Altitude
Unknown
Speed
Unknown
Apparent Right ascension
Unknown
Apparent Declination
Unknown
Sunlit
N/A
Visualization observer readout
Local Sidereal Time
23:36:43
Azimuth
Unknown
Elevation
Unknown
Doppler factor
Unknown
Orbital elements
Apogee altitude
1,053.182 km
Perigee altitude
903.784 km
Semi-major axis
7,356.62 km
Eccentricity
0.01015
Inclination
82.938°
RAAN
33.7501°
Arg. of periapsis
85.473°
True anomaly
69.18013°
Mean anomaly
68.0955°
Eccentric anomaly
68.63731°
Mean motion
3.43974 °/min
Orbital period
104.66 mins
BSTAR
0.00045121
Loading maneuver chart data...
Computing Atmospheric mass density...

Documentation

Showing up to 5 results
|